AFL081 UMKK-ULMM

Flight info

Callsign AFL081
Flight time 2h 17m
Altitude 33000
Route NERIG3N NERIG DCT EKLIN DCT RUDNI DCT NETNA DCT TUTVA DCT VALOX DCT ERNUT DCT RERGA DCT ETROD DCT GATRI/K0850F330 M130 OTMOL/K0856F340 T693 ASGOR ASGOR2L
Aircraft A321/M-SDE3FGHIRWY/LB1

Departure

Time 2026-04-26 16:49
Airport Khrabrovo Airport (UMKK)

Arrival

Time 2026-04-26 19:06
Airport Emperor Nicholas II Murmansk Airport (ULMM)
Time Latitude Longitude Altitude Speed Heading
2026-04-26 16:32 54.88488 20.58479 25 ft 0 kts 156°
2026-04-26 16:42 54.88485 20.58481 26 ft 3 kts 156°
2026-04-26 16:42 54.88468 20.58497 26 ft 3 kts 145°
2026-04-26 16:43 54.88460 20.58515 26 ft 4 kts 122°
2026-04-26 16:43 54.88466 20.58588 26 ft 10 kts 69°
2026-04-26 16:43 54.88508 20.58749 26 ft 14 kts 65°
2026-04-26 16:43 54.88566 20.58808 26 ft 10 kts 340°
2026-04-26 16:44 54.88629 20.58756 26 ft 11 kts 342°
2026-04-26 16:44 54.88695 20.58840 26 ft 15 kts 69°
2026-04-26 16:44 54.88754 20.58975 27 ft 14 kts 30°
2026-04-26 16:44 54.88793 20.59011 27 ft 0 kts 28°
2026-04-26 16:45 54.88797 20.59015 27 ft 4 kts 28°
2026-04-26 16:46 54.88850 20.59063 25 ft 15 kts 27°
2026-04-26 16:46 54.88961 20.59180 25 ft 20 kts 45°
2026-04-26 16:46 54.89064 20.59464 27 ft 36 kts 66°
2026-04-26 16:46 54.89187 20.59939 21 ft 48 kts 65°
2026-04-26 16:47 54.89320 20.60453 22 ft 45 kts 66°
2026-04-26 16:47 54.89448 20.60945 21 ft 44 kts 65°
2026-04-26 16:47 54.89570 20.61421 23 ft 42 kts 66°
2026-04-26 16:47 54.89674 20.61817 25 ft 25 kts 65°
2026-04-26 16:48 54.89728 20.62061 26 ft 15 kts 78°
2026-04-26 16:48 54.89749 20.62181 24 ft 6 kts 359°
2026-04-26 16:48 54.89750 20.62132 26 ft 9 kts 257°
2026-04-26 16:48 54.89650 20.61727 24 ft 72 kts 246°
2026-04-26 16:49 54.89353 20.60582 23 ft 132 kts 245°
2026-04-26 16:49 54.88923 20.58870 122 ft 168 kts 250°
2026-04-26 16:49 54.88445 20.57059 863 ft 164 kts 256°
2026-04-26 16:49 54.88202 20.55154 1225 ft 167 kts 288°
2026-04-26 16:50 54.88926 20.53596 1366 ft 180 kts 333°
2026-04-26 16:50 54.90231 20.53374 1501 ft 206 kts 12°
2026-04-26 16:50 54.91617 20.54486 1717 ft 234 kts 23°
2026-04-26 16:50 54.93065 20.55878 2448 ft 239 kts 25°
2026-04-26 16:51 54.94518 20.57318 3331 ft 240 kts 24°
2026-04-26 16:51 54.95960 20.58741 4162 ft 241 kts 24°
2026-04-26 16:51 54.97427 20.60179 5017 ft 242 kts 24°
2026-04-26 16:51 54.98902 20.61613 5831 ft 243 kts 24°
2026-04-26 16:52 55.00390 20.63048 6628 ft 244 kts 24°
2026-04-26 16:52 55.01378 20.64000 7158 ft 244 kts 23°
2026-04-26 16:52 55.03381 20.65929 8154 ft 247 kts 23°
2026-04-26 16:52 55.04897 20.67388 8885 ft 250 kts 22°
2026-04-26 16:53 55.06435 20.68865 9627 ft 253 kts 22°
2026-04-26 16:53 55.07967 20.70337 10309 ft 257 kts 22°
2026-04-26 16:53 55.09604 20.71897 10516 ft 278 kts 22°
2026-04-26 16:53 55.11374 20.73580 10651 ft 300 kts 22°
2026-04-26 16:54 55.13271 20.75389 10784 ft 320 kts 23°
2026-04-26 16:54 55.15265 20.77304 11145 ft 331 kts 23°
2026-04-26 16:54 55.17293 20.79273 11773 ft 335 kts 23°
2026-04-26 16:54 55.19337 20.81265 12443 ft 337 kts 23°
2026-04-26 16:55 55.21393 20.83267 13118 ft 339 kts 22°
2026-04-26 16:55 55.23461 20.85280 13786 ft 341 kts 22°
2026-04-26 16:55 55.25517 20.87286 14354 ft 343 kts 22°
2026-04-26 16:55 55.27620 20.89337 14904 ft 345 kts 22°
2026-04-26 16:56 55.31931 20.92944 16173 ft 335 kts 13°
2026-04-26 16:56 55.34026 20.94332 17478 ft 315 kts 12°
2026-04-26 16:56 55.36024 20.95664 18790 ft 294 kts 12°
2026-04-26 16:57 55.37848 20.96886 19942 ft 273 kts 11°
2026-04-26 16:57 55.39576 20.98039 20916 ft 260 kts 10°
2026-04-26 16:57 55.42974 21.00248 21830 ft 265 kts
2026-04-26 16:58 55.44752 21.01386 21963 ft 277 kts
2026-04-26 16:58 55.45971 21.02168 22048 ft 285 kts 10°
2026-04-26 16:58 55.50505 21.05125 22371 ft 312 kts 11°
2026-04-26 16:59 55.52578 21.06498 22497 ft 322 kts 11°
2026-04-26 16:59 55.56607 21.09245 24452 ft 291 kts 11°
2026-04-26 17:00 55.60301 21.11747 25379 ft 287 kts 10°
2026-04-26 17:00 55.64167 21.14270 25627 ft 305 kts 11°
2026-04-26 17:00 55.66180 21.15590 25751 ft 313 kts 11°
2026-04-26 17:01 55.68254 21.16967 25882 ft 321 kts 11°
2026-04-26 17:01 55.70375 21.18386 26006 ft 329 kts 12°
2026-04-26 17:01 55.72541 21.19838 26133 ft 336 kts 12°
2026-04-26 17:01 55.74753 21.21325 26261 ft 344 kts 12°
2026-04-26 17:02 55.76985 21.22832 26384 ft 351 kts 12°
2026-04-26 17:02 55.79276 21.24385 26791 ft 346 kts 12°
2026-04-26 17:02 55.81451 21.25888 27989 ft 325 kts 12°
2026-04-26 17:02 55.83522 21.27321 28837 ft 314 kts 12°
2026-04-26 17:03 55.85560 21.28704 29187 ft 315 kts 11°
2026-04-26 17:03 55.87629 21.30087 29325 ft 320 kts 11°
2026-04-26 17:03 55.89730 21.31488 29475 ft 325 kts 11°
2026-04-26 17:03 55.91869 21.32922 29621 ft 330 kts 12°
2026-04-26 17:04 55.94013 21.34367 29769 ft 335 kts 12°
2026-04-26 17:04 55.96211 21.35855 29907 ft 340 kts 12°
2026-04-26 17:04 55.98437 21.37367 30058 ft 345 kts 12°
2026-04-26 17:04 56.00675 21.38896 30556 ft 336 kts 12°
2026-04-26 17:05 56.02839 21.40393 31077 ft 331 kts 12°
2026-04-26 17:05 56.04986 21.41868 31348 ft 330 kts 12°
2026-04-26 17:05 56.06409 21.42842 31540 ft 331 kts 12°
2026-04-26 17:05 56.09274 21.44793 31816 ft 332 kts 12°
2026-04-26 17:06 56.11449 21.46276 31967 ft 335 kts 12°
2026-04-26 17:06 56.13635 21.47773 32084 ft 338 kts 12°
2026-04-26 17:06 56.17317 21.50300 32322 ft 342 kts 12°
2026-04-26 17:07 56.19534 21.51831 32583 ft 342 kts 12°
2026-04-26 17:07 56.21767 21.53374 32787 ft 343 kts 12°
2026-04-26 17:07 56.24000 21.54916 32973 ft 344 kts 12°
2026-04-26 17:07 56.26223 21.56447 33077 ft 347 kts 12°
2026-04-26 17:08 56.30812 21.59607 33143 ft 359 kts 13°
2026-04-26 17:08 56.35574 21.62936 33102 ft 373 kts 13°
2026-04-26 17:09 56.39639 21.65877 33101 ft 383 kts 14°
2026-04-26 17:09 56.45495 21.70158 33101 ft 397 kts 14°
2026-04-26 17:10 56.50710 21.73964 33097 ft 408 kts 14°
2026-04-26 17:10 56.56006 21.77827 33137 ft 415 kts 14°
2026-04-26 17:11 56.61393 21.81761 33088 ft 417 kts 14°
2026-04-26 17:11 56.66752 21.85702 33078 ft 417 kts 14°
2026-04-26 17:12 56.74835 21.91664 33080 ft 417 kts 14°
2026-04-26 17:13 56.82893 21.97639 33077 ft 418 kts 14°
2026-04-26 17:14 56.91002 22.03657 33068 ft 418 kts 14°
2026-04-26 17:14 56.99048 22.09667 33071 ft 418 kts 14°
2026-04-26 17:15 57.07134 22.15727 33109 ft 418 kts 14°
2026-04-26 17:16 57.12524 22.19789 33070 ft 417 kts 14°
2026-04-26 17:16 57.17862 22.23822 33060 ft 417 kts 14°
2026-04-26 17:17 57.23251 22.27891 33054 ft 418 kts 14°
2026-04-26 17:17 57.28636 22.31971 33045 ft 418 kts 15°
2026-04-26 17:18 57.33988 22.36065 33089 ft 418 kts 15°
2026-04-26 17:18 57.39375 22.40197 33058 ft 418 kts 15°
2026-04-26 17:19 57.47444 22.46538 33038 ft 420 kts 16°
2026-04-26 17:19 57.52790 22.50827 33037 ft 420 kts 16°
2026-04-26 17:20 57.57253 22.54419 33036 ft 420 kts 16°
2026-04-26 17:20 57.63507 22.59445 33046 ft 420 kts 16°
2026-04-26 17:21 57.68879 22.63777 33029 ft 420 kts 16°
2026-04-26 17:21 57.74241 22.68115 33023 ft 419 kts 16°
2026-04-26 17:22 57.79607 22.72466 33011 ft 419 kts 16°
2026-04-26 17:22 57.84940 22.76798 33051 ft 420 kts 17°
2026-04-26 17:23 57.90342 22.80991 33021 ft 417 kts 13°
2026-04-26 17:23 57.95801 22.84487 33013 ft 416 kts 11°
2026-04-26 17:24 58.01322 22.87836 33004 ft 416 kts 12°
2026-04-26 17:24 58.04086 22.89560 33106 ft 417 kts 12°
2026-04-26 17:24 58.06799 22.91294 33248 ft 417 kts 12°
2026-04-26 17:25 58.09549 22.93075 33380 ft 417 kts 13°
2026-04-26 17:25 58.12297 22.94870 33556 ft 417 kts 13°
2026-04-26 17:25 58.15047 22.96677 33691 ft 418 kts 13°
2026-04-26 17:25 58.17797 22.98485 33827 ft 418 kts 14°
2026-04-26 17:26 58.20558 23.00298 33951 ft 419 kts 14°
2026-04-26 17:26 58.23282 23.02085 34067 ft 419 kts 14°
2026-04-26 17:26 58.26047 23.03897 34178 ft 419 kts 14°
2026-04-26 17:26 58.28818 23.05712 34291 ft 420 kts 14°
2026-04-26 17:27 58.31582 23.07520 34396 ft 420 kts 14°
2026-04-26 17:27 58.34322 23.09318 34507 ft 420 kts 14°
2026-04-26 17:27 58.37099 23.11154 34656 ft 421 kts 14°
2026-04-26 17:27 58.39873 23.12994 34771 ft 422 kts 14°
2026-04-26 17:28 58.42617 23.14815 34907 ft 421 kts 14°
2026-04-26 17:28 58.45405 23.16664 34955 ft 424 kts 14°
2026-04-26 17:28 58.51027 23.20393 34960 ft 430 kts 14°
2026-04-26 17:29 58.55742 23.23546 34949 ft 433 kts 14°
2026-04-26 17:29 58.62351 23.28042 34948 ft 434 kts 16°
2026-04-26 17:30 58.68015 23.32269 34937 ft 436 kts 17°
2026-04-26 17:30 58.73635 23.36605 34943 ft 437 kts 17°
2026-04-26 17:31 58.79309 23.40931 34939 ft 438 kts 17°
2026-04-26 17:31 58.84988 23.45217 34933 ft 438 kts 17°
2026-04-26 17:32 58.90646 23.49490 34971 ft 439 kts 17°
2026-04-26 17:32 58.96341 23.53821 34926 ft 439 kts 17°
2026-04-26 17:33 59.02039 23.58173 34913 ft 440 kts 17°
2026-04-26 17:34 59.10560 23.64721 34892 ft 439 kts 17°
2026-04-26 17:34 59.16231 23.69092 34908 ft 436 kts 17°
2026-04-26 17:35 59.21867 23.73451 34907 ft 438 kts 17°
2026-04-26 17:35 59.27535 23.77851 34900 ft 438 kts 17°
2026-04-26 17:36 59.33211 23.82279 34894 ft 439 kts 17°
2026-04-26 17:36 59.38890 23.86723 34897 ft 439 kts 17°
2026-04-26 17:37 59.44577 23.91192 34907 ft 440 kts 17°
2026-04-26 17:37 59.50258 23.95682 34910 ft 440 kts 17°
2026-04-26 17:38 59.58795 24.02430 34910 ft 441 kts 17°
2026-04-26 17:38 59.64459 24.06922 34910 ft 441 kts 17°
2026-04-26 17:39 59.70154 24.11504 34932 ft 442 kts 19°
2026-04-26 17:39 59.75804 24.16383 34916 ft 443 kts 20°
2026-04-26 17:40 59.79576 24.19741 34909 ft 444 kts 20°
2026-04-26 17:40 59.87098 24.26400 34892 ft 444 kts 19°
2026-04-26 17:41 59.92725 24.31334 34905 ft 444 kts 19°
2026-04-26 17:41 59.98392 24.36312 34907 ft 444 kts 20°
2026-04-26 17:42 60.04074 24.41327 34889 ft 446 kts 20°
2026-04-26 17:42 60.09706 24.46338 34882 ft 446 kts 20°
2026-04-26 17:43 60.15402 24.51422 34868 ft 447 kts 20°
2026-04-26 17:43 60.21097 24.56515 34865 ft 448 kts 20°
2026-04-26 17:44 60.26759 24.61589 34879 ft 448 kts 20°
2026-04-26 17:44 60.32463 24.66729 34864 ft 449 kts 20°
2026-04-26 17:45 60.38173 24.71909 34856 ft 449 kts 20°
2026-04-26 17:45 60.43885 24.77109 34853 ft 449 kts 20°
2026-04-26 17:46 60.49603 24.82314 34855 ft 450 kts 20°
2026-04-26 17:46 60.55286 24.87507 34866 ft 451 kts 21°
2026-04-26 17:47 60.59114 24.91021 34857 ft 451 kts 21°
2026-04-26 17:47 60.66744 24.98064 34862 ft 452 kts 21°
2026-04-26 17:48 60.72484 25.03395 34859 ft 452 kts 21°
2026-04-26 17:48 60.78224 25.08738 34879 ft 453 kts 21°
2026-04-26 17:49 60.83936 25.14070 34867 ft 454 kts 21°
2026-04-26 17:49 60.89703 25.19473 34863 ft 455 kts 21°
2026-04-26 17:50 60.95453 25.24882 34864 ft 456 kts 21°
2026-04-26 17:50 61.00259 25.29424 34862 ft 456 kts 21°
2026-04-26 17:51 61.06043 25.34917 34880 ft 456 kts 21°
2026-04-26 17:51 61.11791 25.40382 34866 ft 457 kts 22°
2026-04-26 17:52 61.17584 25.45923 34862 ft 458 kts 22°
2026-04-26 17:52 61.23373 25.51474 34840 ft 458 kts 22°
2026-04-26 17:53 61.29128 25.57010 34840 ft 457 kts 22°
2026-04-26 17:54 61.37806 25.65425 34833 ft 459 kts 22°
2026-04-26 17:54 61.43611 25.71077 34841 ft 459 kts 22°
2026-04-26 17:55 61.49379 25.76717 34845 ft 460 kts 22°
2026-04-26 17:55 61.55204 25.82430 34848 ft 460 kts 22°
2026-04-26 17:56 61.60987 25.88123 34865 ft 461 kts 22°
2026-04-26 17:57 61.72603 25.99665 34843 ft 462 kts 23°
2026-04-26 17:57 61.78442 26.05486 34850 ft 463 kts 23°
2026-04-26 17:58 61.90063 26.17166 34858 ft 463 kts 23°
2026-04-26 17:59 61.98818 26.26027 34849 ft 464 kts 23°
2026-04-26 17:59 62.04611 26.31910 34845 ft 464 kts 23°
2026-04-26 18:00 62.10442 26.37866 34840 ft 463 kts 23°
2026-04-26 18:00 62.16261 26.43838 34840 ft 463 kts 23°
2026-04-26 18:01 62.22046 26.49799 34838 ft 463 kts 23°
2026-04-26 18:01 62.27860 26.55812 34836 ft 463 kts 23°
2026-04-26 18:02 62.32682 26.60822 34832 ft 463 kts 24°
2026-04-26 18:02 62.39474 26.67920 34836 ft 464 kts 24°
2026-04-26 18:03 62.45250 26.73978 34841 ft 464 kts 24°
2026-04-26 18:03 62.51076 26.80100 34850 ft 465 kts 24°
2026-04-26 18:04 62.56882 26.86234 34831 ft 465 kts 24°
2026-04-26 18:05 62.65591 26.95517 34830 ft 465 kts 24°
2026-04-26 18:05 62.71412 27.01739 34836 ft 466 kts 24°
2026-04-26 18:06 62.77239 27.07985 34832 ft 466 kts 24°
2026-04-26 18:06 62.83041 27.14258 34828 ft 466 kts 24°
2026-04-26 18:07 62.88872 27.20578 34819 ft 466 kts 24°
2026-04-26 18:07 62.94663 27.26861 34820 ft 466 kts 24°
2026-04-26 18:08 63.00484 27.33215 34830 ft 467 kts 25°
2026-04-26 18:08 63.06310 27.39626 34827 ft 468 kts 25°
2026-04-26 18:09 63.12025 27.46419 34827 ft 469 kts 27°
2026-04-26 18:09 63.17720 27.53589 34829 ft 470 kts 28°
2026-04-26 18:10 63.23413 27.60757 34831 ft 470 kts 27°
2026-04-26 18:10 63.29118 27.67864 34841 ft 470 kts 27°
2026-04-26 18:11 63.34815 27.74937 34821 ft 470 kts 27°
2026-04-26 18:11 63.40529 27.82100 34821 ft 470 kts 28°
2026-04-26 18:12 63.46204 27.89266 34817 ft 470 kts 28°
2026-04-26 18:12 63.51915 27.96499 34827 ft 470 kts 28°
2026-04-26 18:13 63.57609 28.03726 34820 ft 472 kts 28°
2026-04-26 18:13 63.63333 28.11035 34824 ft 472 kts 28°
2026-04-26 18:14 63.69028 28.18357 34822 ft 473 kts 28°
2026-04-26 18:14 63.74748 28.25738 34822 ft 473 kts 28°
2026-04-26 18:15 63.80445 28.33128 34828 ft 473 kts 28°
2026-04-26 18:15 63.86140 28.40549 34825 ft 474 kts 28°
2026-04-26 18:16 63.91889 28.48042 34828 ft 475 kts 28°
2026-04-26 18:16 64.00446 28.59312 34831 ft 475 kts 28°
2026-04-26 18:17 64.06181 28.66915 34834 ft 476 kts 29°
2026-04-26 18:17 64.11888 28.74531 34832 ft 476 kts 28°
2026-04-26 18:18 64.17633 28.82200 34848 ft 476 kts 28°
2026-04-26 18:18 64.23323 28.89803 34843 ft 476 kts 28°
2026-04-26 18:19 64.29038 28.97523 34849 ft 475 kts 29°
2026-04-26 18:19 64.34716 29.05221 34857 ft 475 kts 29°
2026-04-26 18:20 64.40421 29.12983 34847 ft 476 kts 29°
2026-04-26 18:20 64.45170 29.19478 34846 ft 477 kts 29°
2026-04-26 18:21 64.51855 29.28692 34850 ft 477 kts 29°
2026-04-26 18:21 64.57548 29.36548 34852 ft 477 kts 29°
2026-04-26 18:22 64.63237 29.44448 34858 ft 477 kts 30°
2026-04-26 18:22 64.68951 29.52438 34851 ft 477 kts 30°
2026-04-26 18:23 64.74660 29.60477 34850 ft 478 kts 30°
2026-04-26 18:23 64.80352 29.68494 34849 ft 478 kts 30°
2026-04-26 18:24 64.86013 29.76517 34850 ft 478 kts 30°
2026-04-26 18:24 64.91727 29.84668 34850 ft 478 kts 30°
2026-04-26 18:25 64.97413 29.92807 34852 ft 478 kts 30°
2026-04-26 18:25 65.03072 30.00957 34851 ft 478 kts 30°
2026-04-26 18:26 65.08754 30.09179 34855 ft 478 kts 30°
2026-04-26 18:26 65.14433 30.17414 34855 ft 478 kts 30°
2026-04-26 18:27 65.20080 30.25654 34856 ft 478 kts 30°
2026-04-26 18:27 65.25760 30.34009 34853 ft 479 kts 30°
2026-04-26 18:28 65.31400 30.42345 34847 ft 479 kts 30°
2026-04-26 18:28 65.37069 30.50751 34847 ft 479 kts 31°
2026-04-26 18:29 65.42740 30.59209 34849 ft 479 kts 31°
2026-04-26 18:29 65.48388 30.67661 34853 ft 480 kts 31°
2026-04-26 18:30 65.54067 30.76213 34851 ft 481 kts 31°
2026-04-26 18:30 65.59739 30.84829 34850 ft 481 kts 31°
2026-04-26 18:31 65.65392 30.93444 34855 ft 481 kts 31°
2026-04-26 18:31 65.71061 31.02098 34855 ft 481 kts 31°
2026-04-26 18:32 65.76703 31.10765 34852 ft 482 kts 31°
2026-04-26 18:32 65.82371 31.19534 34832 ft 481 kts 31°
2026-04-26 18:33 65.87993 31.28280 34832 ft 481 kts 31°
2026-04-26 18:33 65.93638 31.37108 34832 ft 481 kts 31°
2026-04-26 18:34 65.99288 31.45986 34837 ft 481 kts 32°
2026-04-26 18:34 66.04924 31.54895 34831 ft 482 kts 32°
2026-04-26 18:35 66.10546 31.63837 34830 ft 482 kts 32°
2026-04-26 18:35 66.16209 31.72878 34834 ft 483 kts 32°
2026-04-26 18:36 66.21820 31.81879 34840 ft 484 kts 32°
2026-04-26 18:36 66.27469 31.90999 34849 ft 484 kts 32°
2026-04-26 18:37 66.33120 32.00175 34845 ft 485 kts 32°
2026-04-26 18:37 66.37831 32.07812 34840 ft 485 kts 29°
2026-04-26 18:38 66.44060 32.13933 34828 ft 481 kts 12°
2026-04-26 18:38 66.50556 32.17838 34827 ft 482 kts 13°
2026-04-26 18:39 66.57076 32.21830 34836 ft 482 kts 13°
2026-04-26 18:39 66.63599 32.25893 34825 ft 483 kts 13°
2026-04-26 18:40 66.70122 32.29964 34826 ft 483 kts 13°
2026-04-26 18:40 66.76663 32.34037 34832 ft 484 kts 13°
2026-04-26 18:41 66.83181 32.38107 34836 ft 484 kts 13°
2026-04-26 18:41 66.89734 32.42244 34840 ft 485 kts 13°
2026-04-26 18:42 66.96259 32.46392 34837 ft 485 kts 13°
2026-04-26 18:42 67.02817 32.50577 34831 ft 483 kts 13°
2026-04-26 18:43 67.06030 32.52629 34807 ft 469 kts 13°
2026-04-26 18:43 67.09185 32.54650 34600 ft 465 kts 12°
2026-04-26 18:43 67.12342 32.56676 33697 ft 472 kts 13°
2026-04-26 18:43 67.15543 32.58729 32718 ft 475 kts 12°
2026-04-26 18:44 67.18709 32.60765 31914 ft 475 kts 13°
2026-04-26 18:44 67.21913 32.62843 31148 ft 473 kts 13°
2026-04-26 18:44 67.25099 32.64919 30417 ft 471 kts 13°
2026-04-26 18:44 67.28277 32.66994 29243 ft 465 kts 13°
2026-04-26 18:45 67.31417 32.69056 27590 ft 466 kts 13°
2026-04-26 18:45 67.34542 32.71116 26890 ft 461 kts 13°
2026-04-26 18:45 67.37654 32.73171 26170 ft 457 kts 13°
2026-04-26 18:45 67.40720 32.75203 25516 ft 452 kts 13°
2026-04-26 18:46 67.43726 32.77155 24860 ft 448 kts 11°
2026-04-26 18:46 67.46796 32.78225 24197 ft 442 kts
2026-04-26 18:46 67.49850 32.78220 23546 ft 437 kts 358°
2026-04-26 18:46 67.52876 32.78090 22843 ft 432 kts 358°
2026-04-26 18:47 67.55854 32.77971 22255 ft 424 kts 358°
2026-04-26 18:47 67.58782 32.77860 21656 ft 417 kts 358°
2026-04-26 18:47 67.61662 32.77756 21085 ft 410 kts 358°
2026-04-26 18:47 67.64454 32.77649 20538 ft 403 kts 358°
2026-04-26 18:48 67.67240 32.77538 20009 ft 397 kts 358°
2026-04-26 18:48 67.69985 32.77428 19491 ft 390 kts 358°
2026-04-26 18:48 67.72676 32.77325 18997 ft 384 kts 358°
2026-04-26 18:48 67.75329 32.77229 18509 ft 378 kts 358°
2026-04-26 18:49 67.77935 32.77140 18052 ft 372 kts 358°
2026-04-26 18:49 67.80499 32.77047 17571 ft 365 kts 357°
2026-04-26 18:49 67.83021 32.76948 17140 ft 358 kts 357°
2026-04-26 18:49 67.85492 32.76844 16714 ft 354 kts 357°
2026-04-26 18:50 67.87948 32.76745 16290 ft 351 kts 357°
2026-04-26 18:50 67.90349 32.76655 15874 ft 348 kts 358°
2026-04-26 18:50 67.92767 32.76567 15448 ft 345 kts 358°
2026-04-26 18:50 67.95165 32.76477 15021 ft 343 kts 357°
2026-04-26 18:51 67.97540 32.76384 14586 ft 341 kts 357°
2026-04-26 18:51 67.99911 32.76298 14143 ft 338 kts 358°
2026-04-26 18:51 68.02260 32.76248 13685 ft 336 kts 358°
2026-04-26 18:51 68.04588 32.76213 13188 ft 334 kts 358°
2026-04-26 18:52 68.06901 32.76184 12721 ft 331 kts 358°
2026-04-26 18:52 68.09173 32.76156 12243 ft 328 kts 358°
2026-04-26 18:52 68.11445 32.76133 11920 ft 321 kts 358°
2026-04-26 18:52 68.13637 32.76112 11776 ft 307 kts 358°
2026-04-26 18:53 68.15681 32.76093 11583 ft 283 kts 358°
2026-04-26 18:53 68.17608 32.76070 11027 ft 273 kts 358°
2026-04-26 18:53 68.19487 32.76040 10506 ft 268 kts 358°
2026-04-26 18:53 68.21335 32.76007 10251 ft 264 kts 358°
2026-04-26 18:54 68.23169 32.75974 9988 ft 262 kts 358°
2026-04-26 18:54 68.24964 32.75944 9739 ft 261 kts 358°
2026-04-26 18:54 68.26779 32.75915 9614 ft 260 kts 358°
2026-04-26 18:54 68.28590 32.75887 9452 ft 257 kts 358°
2026-04-26 18:55 68.30342 32.75864 9318 ft 246 kts 358°
2026-04-26 18:55 68.32025 32.75838 9176 ft 238 kts 358°
2026-04-26 18:55 68.33670 32.75814 9035 ft 235 kts 358°
2026-04-26 18:55 68.35304 32.75786 8897 ft 234 kts 358°
2026-04-26 18:56 68.36931 32.75751 8763 ft 234 kts 358°
2026-04-26 18:56 68.38543 32.75722 8618 ft 227 kts 358°
2026-04-26 18:56 68.40113 32.75702 8277 ft 223 kts 358°
2026-04-26 18:56 68.41625 32.76452 7949 ft 222 kts 19°
2026-04-26 18:57 68.43047 32.78007 7653 ft 218 kts 19°
2026-04-26 18:57 68.43963 32.79011 7470 ft 211 kts 19°
2026-04-26 18:57 68.45696 32.80922 7091 ft 195 kts 19°
2026-04-26 18:57 68.46929 32.82283 6823 ft 186 kts 19°
2026-04-26 18:58 68.48107 32.83585 6577 ft 179 kts 18°
2026-04-26 18:58 68.49241 32.84840 6331 ft 173 kts 18°
2026-04-26 18:58 68.50337 32.86056 6098 ft 167 kts 18°
2026-04-26 18:58 68.51395 32.87230 5858 ft 161 kts 18°
2026-04-26 18:59 68.52429 32.88376 5644 ft 159 kts 18°
2026-04-26 18:59 68.53435 32.89489 5429 ft 157 kts 18°
2026-04-26 18:59 68.54428 32.90590 5246 ft 146 kts 18°
2026-04-26 18:59 68.55344 32.91607 5118 ft 143 kts 18°
2026-04-26 19:00 68.56281 32.92644 4985 ft 150 kts 17°
2026-04-26 19:00 68.57270 32.93741 4805 ft 155 kts 18°
2026-04-26 19:00 68.58268 32.94853 4600 ft 155 kts 18°
2026-04-26 19:00 68.59263 32.95967 4390 ft 150 kts 18°
2026-04-26 19:01 68.60196 32.97015 4183 ft 145 kts 18°
2026-04-26 19:01 68.61125 32.98056 3996 ft 144 kts 18°
2026-04-26 19:01 68.62041 32.99084 3795 ft 143 kts 18°
2026-04-26 19:01 68.62986 32.99899 3599 ft 139 kts
2026-04-26 19:02 68.63934 32.99972 3405 ft 138 kts 352°
2026-04-26 19:02 68.64850 32.99213 3269 ft 138 kts 329°
2026-04-26 19:02 68.65679 32.97859 3110 ft 138 kts 329°
2026-04-26 19:02 68.66224 32.96942 2998 ft 138 kts 329°
2026-04-26 19:03 68.67319 32.95022 2751 ft 145 kts 327°
2026-04-26 19:03 68.68168 32.93497 2544 ft 145 kts 327°
2026-04-26 19:03 68.68992 32.92002 2336 ft 139 kts 327°
2026-04-26 19:03 68.69794 32.90540 2146 ft 137 kts 327°
2026-04-26 19:04 68.70586 32.89092 1947 ft 136 kts 327°
2026-04-26 19:04 68.71363 32.87670 1761 ft 135 kts 326°
2026-04-26 19:04 68.72148 32.86231 1567 ft 135 kts 327°
2026-04-26 19:04 68.72930 32.84783 1343 ft 136 kts 326°
2026-04-26 19:05 68.74502 32.81888 950 ft 137 kts 326°
2026-04-26 19:05 68.75303 32.80430 804 ft 139 kts 326°
2026-04-26 19:05 68.76110 32.78952 601 ft 139 kts 326°
2026-04-26 19:06 68.76924 32.77480 362 ft 139 kts 324°
2026-04-26 19:06 68.77713 32.76008 258 ft 129 kts 326°
2026-04-26 19:06 68.78186 32.75113 254 ft 31 kts 325°
2026-04-26 19:06 68.78297 32.75018 256 ft 13 kts 25°
2026-04-26 19:07 68.78354 32.75205 254 ft 9 kts 57°
2026-04-26 19:07 68.78381 32.75322 254 ft 4 kts 57°
2026-04-26 19:07 68.78395 32.75383 254 ft 3 kts 57°
2026-04-26 19:07 68.78405 32.75427 254 ft 3 kts 57°
2026-04-26 19:08 68.78433 32.75563 254 ft 6 kts 77°
2026-04-26 19:08 68.78420 32.75641 254 ft 4 kts 134°
2026-04-26 19:08 68.78402 32.75675 254 ft 3 kts 147°
2026-04-26 19:08 68.78396 32.75686 254 ft 0 kts 147°